GW3643 Weather Reports


Display with metric or nautical units.
time (UTC)temp
F
wind
direction
speed
MPH
gust
MPH
rain 1hr
in
rain 24hr
in
rain mn
in
humidity
%
barometer
mb
20260831134555 87 232 3.0 10.0 0.00 0.00 0.00 24 1018.7
20260831134042 87 153 4.0 10.0 0.00 0.00 0.00 24 1018.7
20260831133547 87 244 2.0 12.0 0.00 0.00 0.00 24 1018.8
20260831133103 87 231 2.0 12.0 0.00 0.00 0.00 25 1018.9
20260831132542 87 214 4.0 10.0 0.00 0.00 0.00 24 1019.0
20260831132043 86 107 4.0 10.0 0.00 0.00 0.00 25 1019.0
20260831131604 86 211 5.0 10.0 0.00 0.00 0.00 25 1019.0
20260831131042 87 151 3.0 16.0 0.00 0.00 0.00 25 1019.0
20260831130545 87 199 0.0 16.0 0.00 0.00 0.00 26 1019.1
20260831130100 85 188 3.0 10.0 0.00 0.00 0.00 26 1019.1
20260831125545 86 186 4.0 9.0 0.00 0.00 0.00 26 1019.2
20260831125043 86 189 1.0 10.0 0.00 0.00 0.00 26 1019.2
20260831124557 86 190 5.0 10.0 0.00 0.00 0.00 26 1019.3
20260831124045 87 215 1.0 5.0 0.00 0.00 0.00 25 1019.3
20260831123543 86 0 1.0 9.0 0.00 0.00 0.00 26 1019.4
20260831123057 84 0 3.0 10.0 0.00 0.00 0.00 27 1019.4
20260831122546 85 188 3.0 13.0 0.00 0.00 0.00 27 1019.5
20260831122043 84 229 5.0 13.0 0.00 0.00 0.00 28 1019.6
20260831121603 86 230 2.0 10.0 0.00 0.00 0.00 26 1019.5
20260831121043 86 330 2.0 10.0 0.00 0.00 0.00 26 1019.6
20260831120545 86 244 1.0 8.0 0.00 0.00 0.00 26 1019.7
20260831120119 85 257 2.0 8.0 0.00 0.00 0.00 27 1019.7
20260831115544 83 126 2.0 9.0 0.00 0.00 0.00 29 1019.7
20260831115045 83 202 4.0 10.0 0.00 0.00 0.00 29 1019.9
20260831114600 83 152 4.0 10.0 0.00 0.00 0.00 29 1019.8
20260831114126 83 176 5.0 10.0 0.00 0.00 0.00 29 1019.9
20260831113543 84 209 1.0 8.0 0.00 0.00 0.00 28 1020.0
20260831113108 82 351 3.0 11.0 0.00 0.00 0.00 30 1020.1
20260831112544 82 172 1.0 11.0 0.00 0.00 0.00 30 1020.2
20260831112045 83 218 4.0 11.0 0.00 0.00 0.00 30 1020.2
20260831111611 82 177 1.0 7.0 0.00 0.00 0.00 30 1020.2
20260831111043 83 180 1.0 7.0 0.00 0.00 0.00 29 1020.2
20260831110547 84 203 1.0 7.0 0.00 0.00 0.00 29 1020.3
20260831110104 82 197 2.0 7.0 0.00 0.00 0.00 30 1020.3
20260831105545 81 0 1.0 5.0 0.00 0.00 0.00 31 1020.3
20260831105042 81 162 3.0 5.0 0.00 0.00 0.00 30 1020.4
20260831104604 82 203 0.0 6.0 0.00 0.00 0.00 30 1020.4
20260831104044 81 166 2.0 6.0 0.00 0.00 0.00 30 1020.5
20260831103541 84 211 1.0 6.0 0.00 0.00 0.00 28 1020.4
20260831103106 84 0 0.0 6.0 0.00 0.00 0.00 28 1020.4
20260831102543 82 252 2.0 6.0 0.00 0.00 0.00 30 1020.4
20260831102042 81 199 2.0 6.0 0.00 0.00 0.00 30 1020.4
20260831101557 80 0 0.0 6.0 0.00 0.00 0.00 31 1020.4
20260831101046 79 248 1.0 7.0 0.00 0.00 0.00 32 1020.5
20260831100547 79 164 2.0 7.0 0.00 0.00 0.00 31 1020.5
20260831100051 79 126 1.0 4.0 0.00 0.00 0.00 31 1020.4
20260831095548 80 110 1.0 5.0 0.00 0.00 0.00 30 1020.4
20260831095046 79 49 1.0 6.0 0.00 0.00 0.00 31 1020.4
20260831094604 79 116 1.0 8.0 0.00 0.00 0.00 31 1020.3
20260831094048 79 183 2.0 10.0 0.00 0.00 0.00 31 1020.2
20260831093546 78 341 3.0 10.0 0.00 0.00 0.00 31 1020.3
20260831093102 77 3 4.0 10.0 0.00 0.00 0.00 31 1020.3
20260831092546 77 346 4.0 8.0 0.00 0.00 0.00 31 1020.3
20260831092045 78 10 3.0 8.0 0.00 0.00 0.00 31 1020.3
20260831091603 77 52 4.0 9.0 0.00 0.00 0.00 31 1020.4
20260831091047 78 46 3.0 9.0 0.00 0.00 0.00 31 1020.4
20260831090545 78 0 0.0 6.0 0.00 0.00 0.00 32 1020.2
20260831090059 78 351 3.0 6.0 0.00 0.00 0.00 31 1020.2
20260831085543 77 0 0.0 5.0 0.00 0.00 0.00 32 1020.3
20260831085043 76 58 1.0 9.0 0.00 0.00 0.00 33 1020.3
20260831084608 75 346 3.0 10.0 0.00 0.00 0.00 34 1020.2
20260831084045 75 357 4.0 10.0 0.00 0.00 0.00 35 1020.2
20260831083545 74 57 5.0 10.0 0.00 0.00 0.00 35 1020.2
20260831083104 75 24 4.0 10.0 0.00 0.00 0.00 35 1020.2
20260831082545 74 7 2.0 8.0 0.00 0.00 0.00 36 1020.2
20260831082045 74 152 2.0 8.0 0.00 0.00 0.00 35 1020.2
20260831081605 74 24 1.0 4.0 0.00 0.00 0.00 36 1020.2
20260831081042 74 137 0.0 5.0 0.00 0.00 0.00 36 1020.2
20260831080541 74 0 1.0 5.0 0.00 0.00 0.00 36 1020.2
20260831080137 74 159 0.0 7.0 0.00 0.00 0.00 36 1020.1
20260831075542 74 23 2.0 7.0 0.00 0.00 0.00 36 1020.1
20260831075045 73 0 1.0 6.0 0.00 0.00 0.00 38 1020.1
20260831074606 73 0 1.0 6.0 0.00 0.00 0.00 38 1020.1
20260831074042 72 0 2.0 6.0 0.00 0.00 0.00 38 1020.1
20260831073547 73 0 0.0 6.0 0.00 0.00 0.00 39 1020.1
20260831073117 72 53 3.0 7.0 0.00 0.00 0.00 39 1020.0
20260831072541 72 57 1.0 7.0 0.00 0.00 0.00 40 1019.9
20260831072043 71 359 3.0 7.0 0.00 0.00 0.00 41 1019.9
20260831071559 71 14 3.0 7.0 0.00 0.00 0.00 42 1019.9
20260831071042 71 341 3.0 6.0 0.00 0.00 0.00 45 1019.8
20260831070546 71 341 1.0 4.0 0.00 0.00 0.00 43 1019.7
20260831065543 71 330 0.0 3.0 0.00 0.00 0.00 44 1019.7
20260831065046 70 0 0.0 2.0 0.00 0.00 0.00 48 1019.8
20260831064608 69 0 0.0 2.0 0.00 0.00 0.00 50 1019.7
20260831064043 68 0 0.0 2.0 0.00 0.00 0.00 51 1019.8
20260831063544 68 293 0.0 2.0 0.00 0.00 0.00 50 1019.8
20260831063106 68 3 0.0 2.0 0.00 0.00 0.00 49 1019.8
20260831062543 68 0 0.0 1.0 0.00 0.00 0.00 49 1019.7
20260831062047 68 0 0.0 2.0 0.00 0.00 0.00 50 1019.7
20260831061557 68 0 0.0 2.0 0.00 0.00 0.00 48 1019.7
20260831061043 69 3 0.0 2.0 0.00 0.00 0.00 46 1019.6
20260831060542 68 0 0.0 2.0 0.00 0.00 0.00 47 1019.6
20260831060101 68 0 0.0 2.0 0.00 0.00 0.00 48 1019.5
20260831055545 68 0 0.0 2.0 0.00 0.00 0.00 48 1019.5
20260831055044 68 0 0.0 3.0 0.00 0.00 0.00 47 1019.4
20260831054601 68 0 0.0 3.0 0.00 0.00 0.00 48 1019.4
20260831054045 68 3 0.0 3.0 0.00 0.00 0.00 49 1019.4
20260831053545 67 0 0.0 3.0 0.00 0.00 0.00 50 1019.4
20260831053058 67 0 1.0 3.0 0.00 0.00 0.00 51 1019.5
20260831052545 69 3 1.0 3.0 0.00 0.00 0.00 48 1019.4
20260831052045 70 0 0.0 2.0 0.00 0.00 0.00 44 1019.4
20260831051603 70 0 0.0 3.0 0.00 0.00 0.00 42 1019.4
20260831051045 70 0 0.0 3.0 0.00 0.00 0.00 43 1019.4
20260831050545 70 0 0.0 3.0 0.00 0.00 0.00 42 1019.4
20260831050103 70 0 0.0 1.0 0.00 0.00 0.00 43 1019.3
20260831045545 71 0 0.0 4.0 0.00 0.00 0.00 42 1019.3
20260831045044 71 0 0.0 4.0 0.00 0.00 0.00 42 1019.2
20260831044602 70 0 0.0 3.0 0.00 0.00 0.00 43 1019.1
20260831044042 70 0 0.0 3.0 0.00 0.00 0.00 43 1019.1
20260831043544 70 0 0.0 5.0 0.00 0.00 0.00 44 1019.1
20260831043057 70 0 0.0 5.0 0.00 0.00 0.00 44 1019.1
20260831042545 70 33 0.0 5.0 0.00 0.00 0.00 44 1019.1
20260831042047 69 356 0.0 4.0 0.00 0.00 0.00 47 1019.1
20260831041610 69 67 0.0 4.0 0.00 0.00 0.00 50 1018.9
20260831041050 69 0 0.0 4.0 0.00 0.00 0.00 51 1018.9
20260831040546 69 341 1.0 4.0 0.00 0.00 0.00 49 1018.9
20260831040107 70 319 1.0 4.0 0.00 0.00 0.00 48 1019.0
20260831035544 70 346 0.0 2.0 0.00 0.00 0.00 47 1019.0
20260831035045 70 0 0.0 1.0 0.00 0.00 0.00 46 1019.0
20260831034607 70 0 0.0 1.0 0.00 0.00 0.00 45 1019.0
20260831034045 70 0 0.0 1.0 0.00 0.00 0.00 46 1019.0
20260831033547 69 0 0.0 0.0 0.00 0.00 0.00 49 1019.0
20260831033102 69 0 0.0 0.0 0.00 0.00 0.00 50 1019.1
20260831032545 69 0 0.0 0.0 0.00 0.00 0.00 50 1018.9
20260831032045 69 0 0.0 2.0 0.00 0.00 0.00 50 1019.1
20260831031558 70 0 0.0 2.0 0.00 0.00 0.00 49 1018.9
20260831031044 70 351 0.0 2.0 0.00 0.00 0.00 48 1018.9
20260831030544 71 0 0.0 2.0 0.00 0.00 0.00 47 1019.0
20260831025544 72 0 0.0 3.0 0.00 0.00 0.00 44 1018.9
20260831025045 73 0 0.0 5.0 0.00 0.00 0.00 43 1018.9
20260831024559 73 17 0.0 5.0 0.00 0.00 0.00 43 1018.8
20260831024045 73 37 0.0 3.0 0.00 0.00 0.00 42 1018.8
20260831023545 73 0 0.0 2.0 0.00 0.00 0.00 42 1018.8
20260831023058 73 0 0.0 2.0 0.00 0.00 0.00 42 1018.8
20260831022550 73 0 0.0 2.0 0.00 0.00 0.00 42 1018.8
20260831022048 73 21 0.0 2.0 0.00 0.00 0.00 43 1018.8
20260831021600 72 0 0.0 2.0 0.00 0.00 0.00 44 1018.8
20260831021042 72 0 0.0 2.0 0.00 0.00 0.00 44 1018.7
20260831020542 72 0 0.0 2.0 0.00 0.00 0.00 44 1018.8
20260831015544 73 0 0.0 4.0 0.00 0.00 0.00 43 1018.8
20260831015044 74 0 2.0 4.0 0.00 0.00 0.00 42 1018.8
20260831014559 74 96 0.0 1.0 0.00 0.00 0.00 41 1018.8
20260831014046 74 0 0.0 1.0 0.00 0.00 0.00 41 1018.8
20260831013542 74 0 0.0 1.0 0.00 0.00 0.00 41 1018.8
20260831013106 74 0 0.0 1.0 0.00 0.00 0.00 41 1018.8
20260831012545 74 0 0.0 4.0 0.00 0.00 0.00 41 1018.8
20260831012050 74 0 0.0 4.0 0.00 0.00 0.00 41 1018.8
20260831011601 74 93 0.0 1.0 0.00 0.00 0.00 41 1018.8
20260831011045 74 0 0.0 0.0 0.00 0.00 0.00 42 1018.8
20260831010544 74 0 0.0 0.0 0.00 0.00 0.00 42 1018.9
20260831010123 74 0 0.0 0.0 0.00 0.00 0.00 42 1019.0
20260831005546 74 0 0.0 0.0 0.00 0.00 0.00 42 1019.0
20260831005045 74 0 0.0 0.0 0.00 0.00 0.00 42 1019.1
20260831004612 74 0 0.0 0.0 0.00 0.00 0.00 41 1019.0
20260831004043 74 0 0.0 0.0 0.00 0.00 0.00 41 1019.1
20260831003545 74 0 0.0 1.0 0.00 0.00 0.00 41 1019.1
20260831003107 75 0 0.0 1.0 0.00 0.00 0.00 41 1019.1
20260831002545 75 0 0.0 2.0 0.00 0.00 0.00 41 1018.9
20260831002046 75 0 0.0 2.0 0.00 0.00 0.00 41 1018.9
20260831001603 75 0 0.0 2.0 0.00 0.00 0.00 40 1018.8
20260831001045 75 0 0.0 3.0 0.00 0.00 0.00 40 1018.8
20260831000545 75 0 0.0 3.0 0.00 0.00 0.00 40 1018.8
20260831000101 75 220 0.0 2.0 0.00 0.00 0.00 40 1018.9
20260830235545 75 220 0.0 2.0 0.00 0.00 0.00 41 1018.8
20260830235045 75 0 0.0 2.0 0.00 0.00 0.00 41 1018.8
20260830234601 75 0 0.0 3.0 0.00 0.00 0.00 41 1018.9
20260830234043 75 220 1.0 3.0 0.00 0.00 0.00 41 1018.8
20260830233545 76 220 0.0 3.0 0.00 0.00 0.00 41 1018.9
20260830233057 76 213 1.0 3.0 0.00 0.00 0.00 41 1018.9
20260830232545 76 213 1.0 3.0 0.00 0.00 0.00 41 1018.9
20260830232044 76 232 1.0 4.0 0.00 0.00 0.00 41 1018.9
20260830231602 76 210 0.0 4.0 0.00 0.00 0.00 41 1018.8
20260830231042 77 210 1.0 3.0 0.00 0.00 0.00 40 1018.8
20260830230542 77 0 0.0 2.0 0.00 0.00 0.00 41 1018.7
20260830230057 77 196 0.0 3.0 0.00 0.00 0.00 41 1018.7
20260830225543 77 196 1.0 3.0 0.00 0.00 0.00 40 1018.6
20260830225043 77 176 1.0 3.0 0.00 0.00 0.00 40 1018.6
20260830224607 77 308 0.0 1.0 0.00 0.00 0.00 40 1018.5
20260830224043 77 0 0.0 1.0 0.00 0.00 0.00 40 1018.5
20260830223543 77 0 0.0 1.0 0.00 0.00 0.00 41 1018.4
20260830223056 77 0 0.0 1.0 0.00 0.00 0.00 40 1018.4
20260830222545 77 0 0.0 1.0 0.00 0.00 0.00 40 1018.3
20260830222045 77 0 0.0 1.0 0.00 0.00 0.00 41 1018.4
20260830221600 77 0 0.0 0.0 0.00 0.00 0.00 41 1018.4
20260830221045 77 0 0.0 0.0 0.00 0.00 0.00 41 1018.3
20260830220543 77 0 0.0 0.0 0.00 0.00 0.00 41 1018.3
20260830220104 77 0 0.0 1.0 0.00 0.00 0.00 41 1018.4
20260830215546 77 0 0.0 1.0 0.00 0.00 0.00 41 1018.3
20260830215046 77 0 0.0 1.0 0.00 0.00 0.00 41 1018.4
20260830214557 77 0 0.0 3.0 0.00 0.00 0.00 40 1018.3
20260830214042 78 0 0.0 3.0 0.00 0.00 0.00 40 1018.3
20260830213545 78 308 0.0 3.0 0.00 0.00 0.00 40 1018.3
20260830213104 78 308 0.0 2.0 0.00 0.00 0.00 40 1018.1
20260830212545 78 0 0.0 2.0 0.00 0.00 0.00 40 1018.1
20260830212043 78 0 0.0 2.0 0.00 0.00 0.00 40 1018.1
20260830211558 78 307 0.0 3.0 0.00 0.00 0.00 39 1018.1
20260830211043 79 0 0.0 3.0 0.00 0.00 0.00 39 1018.1
20260830210543 79 312 0.0 2.0 0.00 0.00 0.00 38 1018.0
20260830210058 79 0 0.0 2.0 0.00 0.00 0.00 39 1018.0
20260830205544 79 0 0.0 2.0 0.00 0.00 0.00 38 1018.0
20260830205045 79 0 0.0 3.0 0.00 0.00 0.00 38 1018.0
20260830204553 79 0 0.0 3.0 0.00 0.00 0.00 38 1018.0
20260830204043 79 0 0.0 3.0 0.00 0.00 0.00 38 1017.9
20260830203543 80 293 0.0 3.0 0.00 0.00 0.00 37 1017.8
20260830203100 80 0 0.0 3.0 0.00 0.00 0.00 37 1017.8
20260830202545 80 300 0.0 3.0 0.00 0.00 0.00 36 1017.8
20260830202044 80 0 0.0 3.0 0.00 0.00 0.00 35 1017.8
20260830201600 80 0 0.0 3.0 0.00 0.00 0.00 34 1017.8
20260830201042 80 0 0.0 4.0 0.00 0.00 0.00 32 1017.7
20260830200543 81 0 0.0 4.0 0.00 0.00 0.00 31 1017.7
20260830200055 81 200 1.0 4.0 0.00 0.00 0.00 30 1017.6
20260830195545 81 234 0.0 2.0 0.00 0.00 0.00 31 1017.5
20260830195042 81 0 0.0 3.0 0.00 0.00 0.00 30 1017.5
20260830194612 81 0 0.0 6.0 0.00 0.00 0.00 29 1017.4
20260830194045 81 292 1.0 7.0 0.00 0.00 0.00 28 1017.2
20260830193545 82 267 1.0 8.0 0.00 0.00 0.00 28 1017.3
20260830193101 82 0 0.0 8.0 0.00 0.00 0.00 28 1017.2
20260830192545 82 236 1.0 8.0 0.00 0.00 0.00 27 1017.1
20260830192043 83 254 0.0 4.0 0.00 0.00 0.00 27 1017.1
20260830191603 83 226 1.0 4.0 0.00 0.00 0.00 26 1017.1
20260830191048 83 294 0.0 3.0 0.00 0.00 0.00 26 1017.1
20260830190543 84 244 0.0 7.0 0.00 0.00 0.00 26 1017.0
20260830190054 84 0 1.0 7.0 0.00 0.00 0.00 25 1017.0
20260830185543 84 0 3.0 7.0 0.00 0.00 0.00 25 1016.9
20260830185044 84 262 2.0 7.0 0.00 0.00 0.00 25 1016.9
20260830184558 84 240 2.0 7.0 0.00 0.00 0.00 25 1016.8
20260830184042 85 224 2.0 10.0 0.00 0.00 0.00 25 1016.8
20260830183545 85 290 1.0 10.0 0.00 0.00 0.00 24 1016.7
20260830183100 85 224 2.0 12.0 0.00 0.00 0.00 24 1016.7
20260830182542 85 222 3.0 12.0 0.00 0.00 0.00 24 1016.7
20260830182042 85 288 6.0 12.0 0.00 0.00 0.00 24 1016.7
20260830181604 86 329 2.0 11.0 0.00 0.00 0.00 24 1016.6
20260830181044 86 237 2.0 13.0 0.00 0.00 0.00 24 1016.7
20260830180543 86 178 1.0 13.0 0.00 0.00 0.00 24 1016.7
20260830180103 86 240 4.0 13.0 0.00 0.00 0.00 24 1016.7
20260830175542 86 180 4.0 14.0 0.00 0.00 0.00 24 1016.7
20260830175043 86 254 4.0 14.0 0.00 0.00 0.00 24 1016.8
20260830174638 86 233 3.0 14.0 0.00 0.00 0.00 24 1016.7
20260830174044 87 288 2.0 13.0 0.00 0.00 0.00 23 1016.6
20260830173544 86 0 2.0 13.0 0.00 0.00 0.00 24 1016.7
20260830173059 87 270 3.0 13.0 0.00 0.00 0.00 23 1016.7
20260830172546 86 243 4.0 16.0 0.00 0.00 0.00 23 1016.6
20260830172045 87 197 5.0 16.0 0.00 0.00 0.00 23 1016.7
20260830171607 87 253 2.0 10.0 0.00 0.00 0.00 23 1016.7
20260830171043 87 222 4.0 16.0 0.00 0.00 0.00 23 1016.7
20260830170543 87 63 2.0 16.0 0.00 0.00 0.00 23 1016.7
20260830170059 87 205 4.0 13.0 0.00 0.00 0.00 22 1016.7
20260830165541 88 209 1.0 12.0 0.00 0.00 0.00 22 1016.6
20260830165045 88 247 3.0 11.0 0.00 0.00 0.00 22 1016.6
20260830164601 88 52 2.0 15.0 0.00 0.00 0.00 22 1016.6
20260830164044 88 243 2.0 15.0 0.00 0.00 0.00 22 1016.7
20260830163545 88 249 4.0 10.0 0.00 0.00 0.00 22 1016.6
20260830163104 88 337 1.0 16.0 0.00 0.00 0.00 22 1016.6
20260830162545 88 12 3.0 16.0 0.00 0.00 0.00 22 1016.7
20260830162042 88 242 5.0 16.0 0.00 0.00 0.00 22 1016.5
20260830161612 88 243 3.0 13.0 0.00 0.00 0.00 22 1016.6
20260830161044 88 284 5.0 13.0 0.00 0.00 0.00 22 1016.7
20260830160546 89 228 2.0 11.0 0.00 0.00 0.00 22 1016.8
20260830160105 88 148 2.0 14.0 0.00 0.00 0.00 22 1016.7
20260830155541 88 205 4.0 14.0 0.00 0.00 0.00 22 1016.8
20260830155042 88 206 3.0 15.0 0.00 0.00 0.00 22 1016.7
20260830154602 88 257 5.0 15.0 0.00 0.00 0.00 22 1016.9
20260830154045 89 346 2.0 9.0 0.00 0.00 0.00 22 1016.8
20260830153544 88 227 3.0 16.0 0.00 0.00 0.00 23 1016.8
20260830153106 88 284 6.0 16.0 0.00 0.00 0.00 23 1017.0
20260830152545 88 124 6.0 13.0 0.00 0.00 0.00 22 1016.8
20260830152043 88 97 2.0 20.0 0.00 0.00 0.00 22 1016.9
20260830151601 88 149 5.0 20.0 0.00 0.00 0.00 23 1016.9
20260830151043 87 167 6.0 16.0 0.00 0.00 0.00 23 1017.0
20260830150542 89 213 3.0 14.0 0.00 0.00 0.00 22 1017.1
20260830145545 88 194 5.0 16.0 0.00 0.00 0.00 23 1017.1
20260830145043 88 235 6.0 16.0 0.00 0.00 0.00 22 1017.1
20260830144605 89 263 4.0 14.0 0.00 0.00 0.00 22 1017.1
20260830144045 89 351 2.0 17.0 0.00 0.00 0.00 24 1017.1
20260830143543 87 216 4.0 17.0 0.00 0.00 0.00 25 1017.2
20260830143100 87 201 6.0 15.0 0.00 0.00 0.00 25 1017.3
20260830142543 87 195 5.0 13.0 0.00 0.00 0.00 24 1017.4
20260830142043 88 184 4.0 12.0 0.00 0.00 0.00 24 1017.4
20260830141608 88 351 1.0 9.0 0.00 0.00 0.00 24 1017.4
20260830141044 88 221 2.0 9.0 0.00 0.00 0.00 24 1017.5
20260830140543 87 341 4.0 12.0 0.00 0.00 0.00 25 1017.6
20260830140117 87 272 6.0 16.0 0.00 0.00 0.00 25 1017.6
20260830135545 87 72 5.0 17.0 0.00 0.00 0.00 25 1017.7
20260830135042 86 233 6.0 17.0 0.00 0.00 0.00 25 1017.8